GLOBALSTAR M051 [-]

Last updated on Fri Dec 29 2023 00:02:56 GMT+0000 (Coordinated Universal Time)

1 25853U 99037C 23361.72459394 -.00000016 00000+0 13702-2 0 9991 2 25853 51.9788 257.4417 0001825 2.7452 357.3368 11.42194919 70978

Satellite not in orbit

GLOBALSTAR M051 [-]